Location: Washington
(38.8950°N, 77.0370°W)
Time: 02:25:34
(UTC-05:00)

Tiangong 1 - Visible Passes

Search period start: 27 February 2015 00:00
Search period end: 09 March 2015 01:00
Orbit: 349 x 362 km, 42.8° (Epoch: 26 February)

Date Brightness Start Highest point End Pass type
(mag) Time Alt. Az. Time Alt. Az. Time Alt. Az.
01 Mar 2.8 05:46:31 10° SSW 05:49:02 26° SSE 05:51:35 10° E visible
02 Mar 3.9 04:40:27 12° SE 04:40:27 12° SE 04:41:29 10° ESE visible
03 Mar 2.1 05:06:27 31° S 05:06:55 33° SSE 05:09:38 10° E visible
04 Mar 0.8 05:32:13 27° WSW 05:33:39 90° WNW 05:36:37 10° ENE visible
05 Mar 3.8 04:26:12 19° E 04:26:12 19° E 04:27:13 10° E visible
05 Mar 1.4 05:57:47 11° W 06:00:27 46° NNW 06:03:19 10° ENE visible
06 Mar 1.7 04:51:36 50° NE 04:51:36 50° NE 04:53:55 10° ENE visible
07 Mar 1.6 05:16:51 34° NW 05:17:35 42° N 05:20:25 10° ENE visible
08 Mar 4.3 05:10:23 13° ENE 05:10:23 13° ENE 05:10:49 10° ENE visible
08 Mar 2.0 06:41:57 14° WNW 06:44:11 36° N 06:46:56 10° ENE visible
